Location: Kershaw
(34.5481°N, 80.5823°W)
Time: 06:59:56
(UTC+00:00)

Vanguard 3 - Visible Passes

Search period start: 08 December 2023 00:00
Search period end: 18 December 2023 00:00
Orbit: 507 x 3241 km, 33.3° (Epoch: 08 December)

Date Brightness Start Highest point End Pass type
(mag) Time Alt. Az. Time Alt. Az. Time Alt. Az.
08 Dec 9.4 00:48:41 10° SW 01:05:12 49° SSE 01:06:48 47° SE visible
08 Dec 10.4 03:04:48 10° WSW 03:11:07 28° WSW 03:11:07 28° WSW visible
08 Dec 10.1 23:29:59 10° SSW 23:46:19 37° SSE 23:54:21 22° ESE visible
09 Dec 9.4 01:44:21 10° WSW 01:58:41 59° SSW 01:58:41 59° SSW visible
09 Dec 11.0 04:01:41 10° W 04:03:00 13° W 04:03:00 13° W visible
09 Dec 10.7 22:12:52 10° S 22:27:14 26° SE 22:39:05 10° E visible
10 Dec 9.5 00:24:29 10° SW 00:42:12 54° SSE 00:46:13 44° ESE visible
10 Dec 10.0 02:40:58 10° WSW 02:50:32 40° WSW 02:50:32 40° WSW visible
10 Dec 10.2 23:05:41 10° SSW 23:23:05 41° SSE 23:33:43 17° E visible
11 Dec 9.2 01:20:20 10° WSW 01:38:03 70° SSE 01:38:03 70° SSE visible
11 Dec 10.7 03:38:01 10° W 03:42:22 22° W 03:42:22 22° W visible
12 Dec 9.6 00:00:23 10° SW 00:19:03 58° SSE 00:25:32 37° E visible
12 Dec 9.6 02:17:05 10° WSW 02:29:51 55° WSW 02:29:51 55° WSW visible
12 Dec 10.4 22:41:35 10° SW 22:59:41 46° SSE 23:13:00 12° E visible
13 Dec 9.2 00:56:22 10° WSW 01:15:05 74° SSE 01:17:19 66° ESE visible
13 Dec 10.4 03:14:15 10° W 03:21:38 31° W 03:21:38 31° W visible
13 Dec 9.8 23:36:26 10° SW 23:55:44 62° SSE 00:04:46 29° E visible
14 Dec 9.3 01:53:12 10° W 02:09:05 72° WSW 02:09:05 72° WSW visible
14 Dec 11.0 04:11:22 10° W 04:13:24 15° W 04:13:24 15° W visible
14 Dec 10.4 22:17:41 10° SW 22:36:09 49° SSE 22:51:23 10° E visible
15 Dec 9.3 00:32:28 10° WSW 00:51:55 77° SSE 00:56:31 53° E visible
15 Dec 10.0 02:50:25 10° W 03:00:50 43° W 03:00:50 43° W visible
15 Dec 10.0 23:12:37 10° SW 23:32:16 66° SSE 23:43:55 22° E visible
16 Dec 9.2 01:29:20 10° W 01:48:09 85° S 01:48:14 85° SSE visible
16 Dec 10.7 03:47:36 10° W 03:52:33 23° W 03:52:33 23° W visible
17 Dec 9.6 00:08:41 10° WSW 00:28:36 80° SSE 00:35:39 42° E visible
17 Dec 9.7 02:26:33 10° W 02:39:57 56° W 02:39:57 56° W visible
17 Dec 10.1 22:48:59 10° WSW 23:08:40 69° SSE 23:23:02 15° E visible
